[[{"header":{"parameterUnit":"m.s-1","parameterCategory":1,"la1":30.2991,"la2":30.254,"lo1":-89.0895,"lo2":-89.0444,"dy":0.0017,"dx":0.0017,"nx":28,"ny":28,"refTime":"2024-12-25T09:00:00:Z","depth":0,"parameterNumber":2,"parameterNumberName":"U-component_of_WINDS"},"data":[0,0,0,0,0,0,0,0,0,0,0,0,0,0,0,0,0,0,0,0,0,0,0,0,0,0,0,0,0,0,0,0,0,0,0,0,0,0,0,0,0,0,0,0,0,0,0,0,0,0,0,0,0,0,0,0,0,0,-4.5366,-4.5366,0,-4.5368,-4.5368,-4.5368,-4.5199,-4.5195,-4.5191,-4.5186,-4.5189,-4.5193,-4.5197,0,0,0,0,0,0,0,0,0,0,0,0,0,-4.5218,-4.5222,-4.5366,-4.5366,-4.5366,-4.5368,-4.5368,-4.5368,-4.52,-4.5195,-4.5189,-4.5184,-4.5187,-4.5192,-4.5197,0,0,0,0,0,0,0,0,0,0,0,0,0,-4.5258,-4.5223,-4.5366,-4.5283,-4.5275,-4.5368,-4.5368,-4.5368,-4.5201,-4.5195,-4.5188,-4.5182,-4.5186,-4.5192,-4.5198,-4.5371,0,0,-4.5217,-4.522,0,0,0,0,0,0,0,0,-4.5256,-4.5263,-4.5295,-4.5289,-4.528,-4.5277,-4.5316,-4.5369,-4.5203,-4.523,-4.5186,-4.5178,-4.5223,-4.5226,-4.5241,-4.5371,-4.5371,-4.5218,-4.5222,-4.5224,-4.5226,0,0,0,0,0,0,0,-4.5253,-4.5262,-4.5367,-4.5296,-4.5287,-4.5245,-4.5244,-4.5326,-4.5264,-4.5227,-4.5214,-4.5217,-4.5218,-4.5236,-4.524,-4.5371,-4.5218,-4.5223,-4.5227,-4.523,-4.5644,-4.565,0,0,0,0,0,0,-4.5262,-4.5261,-4.5367,-4.5367,-4.5251,-4.5254,-4.5252,-4.5285,-4.5262,-4.5253,-4.5223,-4.5209,-4.5228,-4.5233,-4.5239,-4.5441,-4.5224,-4.523,-4.5234,-4.5636,-4.5645,-4.5653,0,0,0,0,0,0,-4.5259,-4.5273,-4.5367,-4.5311,-4.5319,-4.5263,-4.5302,-4.5288,-4.5305,-4.5259,-4.5248,-4.5252,-4.5223,-4.5231,-4.534,-4.5438,-4.5233,-4.5239,-4.5628,-4.5639,-4.5649,-4.5845,0,0,0,0,0,0,-4.5256,-4.5273,-4.5338,-4.5313,-4.5323,-4.5467,-4.5308,-4.5293,-4.5317,-4.5299,-4.5284,-4.5275,-4.5218,-4.5331,-4.5346,-4.5443,-4.5244,-4.5619,-4.5633,-4.5646,-4.583,-4.5861,-4.5888,0,0,0,0,0,-4.5251,-4.5393,-4.5342,-4.5356,-4.5403,-4.5473,-4.5479,-4.5411,-4.5325,-4.539,-4.5361,-4.5275,-4.5426,-4.5344,-4.5359,-4.546,-4.5612,-4.5629,-4.5645,-4.5816,-4.5855,-4.5888,0,0,0,0,0,0,-4.543,-4.5388,-4.5331,-4.5469,-4.5476,-4.5445,-4.5524,-4.5454,-4.5485,-4.5467,-4.5382,-4.538,-4.5503,-4.5492,-4.5402,-4.5627,-4.5504,-4.5524,-4.5629,-4.5665,-4.5694,-4.5694,-4.5249,0,0,0,0,0,-4.5485,-4.5546,-4.5506,-4.5631,-4.5638,-4.5581,-4.5609,-4.5556,-4.556,-4.5562,-4.554,-4.5548,-4.5596,-4.563,-4.5672,-4.5827,-4.5822,-4.5904,-4.5934,-4.5958,-4.5977,-4.6059,-4.6095,-4.5706,-4.5706,-4.5706,0,0,-4.56,-4.5585,-4.5628,-4.5667,-4.5666,-4.5731,-4.5584,-4.5659,-4.5706,-4.5573,-4.5675,-4.566,-4.5662,-4.5796,-4.5853,-4.579,-4.6083,-4.5979,-4.5999,-4.6004,-4.6079,-4.6116,-4.6149,-4.5717,-4.5715,-4.5713,0,0,-4.5843,-4.5838,-4.5942,-4.5944,-4.5945,-4.5907,-4.5932,-4.5912,-4.5897,-4.5998,-4.59,-4.5955,-4.604,-4.6046,-4.6061,-4.6308,-4.6231,-4.6324,-4.6478,-4.6559,-4.659,-4.6617,-4.6706,-4.6738,-4.6343,-4.6343,-4.6344,0,-4.5986,-4.6079,-4.6004,-4.6086,-4.6106,-4.5989,-4.6095,-4.6101,-4.6116,-4.6133,-4.6062,-4.6168,-4.6161,-4.6295,-4.6355,-4.6371,-4.6397,-4.6326,-4.6592,-4.6618,-4.6642,-4.6725,-4.6759,-4.6355,-4.6353,-4.6352,-4.6351,0,-4.6256,-4.6322,-4.6406,-4.6424,-4.6454,-4.6548,-4.6487,-4.6526,-4.6472,-4.6441,-4.6546,-4.6534,-4.6572,-4.66,-4.6547,-4.6727,-4.6688,-4.6606,-4.6481,-4.6691,-4.6769,-4.68,-4.6371,-4.6367,-4.6364,-4.6361,0,0,-4.661,-4.6586,-4.6618,-4.6626,-4.6619,-4.6669,-4.6757,-4.6795,-4.6831,-4.6846,-4.6918,-4.6994,-4.6919,-4.6935,-4.6882,-4.6953,-4.7151,-4.6862,-4.6861,-4.6917,-4.7349,-4.7411,-4.7449,-4.71,-4.7106,-4.711,-4.7349,0,-4.6845,-4.6995,-4.6931,-4.7087,-4.7148,-4.7039,-4.7116,-4.7121,-4.7095,-4.7143,-4.7114,-4.717,-4.7066,-4.7075,-4.7141,-4.7113,-4.7237,-4.7095,-4.7167,-4.717,-4.717,-4.749,-4.7555,-4.7781,-4.7379,-4.7384,-4.7388,0,-4.714,-4.7168,-4.733,-4.7314,-4.7337,-4.7408,-4.7437,-4.7485,-4.7489,-4.7465,-4.7485,-4.7416,-4.7502,-4.7378,-4.7496,-4.7401,-4.7427,-4.7418,-4.7425,-4.7429,-4.7292,-4.7503,-4.7851,-4.7885,-4.7434,-4.7431,-4.7427,0,-4.7383,-4.7461,-4.7568,-4.7577,-4.7561,-4.7613,-4.7609,-4.7606,-4.7633,-4.7659,-4.7676,-4.7713,-4.7733,-4.7763,-4.7706,-4.7621,-4.7833,-4.7704,-4.7816,-4.7818,-4.7865,-4.7863,-4.8223,-4.7882,-4.7882,-4.7881,-4.788,0,-4.7652,-4.7756,-4.7677,-4.7743,-4.7857,-4.7783,-4.7897,-4.788,-4.7879,-4.7941,-4.7848,-4.7908,-4.7829,-4.7882,-4.7838,-4.7943,-4.7953,-4.7936,-4.7923,-4.7944,-4.7947,-4.796,-4.7943,-4.789,-4.7888,-4.7886,-4.7885,0,-4.7942,-4.7893,-4.8003,-4.7979,-4.7976,-4.8061,-4.804,-4.81,-4.8069,-4.8148,-4.8162,-4.8113,-4.817,-4.8116,-4.817,-4.8141,-4.8281,-4.8246,-4.828,-4.827,-4.8386,-4.8376,-4.8767,-4.8814,-4.8444,-4.8447,-4.845,0,-4.8117,-4.8195,-4.818,-4.8214,-4.8216,-4.8273,-4.83,-4.8231,-4.8264,-4.8275,-4.8335,-4.8384,-4.8419,-4.8516,-4.8485,-4.8526,-4.8491,-4.8625,-4.8496,-4.8516,-4.8493,-4.8489,-4.8497,-4.8651,-4.8656,-4.8659,-4.8662,0,-4.8434,-4.8406,-4.8449,-4.8486,-4.8522,-4.8546,-4.8564,-4.8598,-4.8527,-4.8568,-4.8626,-4.8654,-4.8709,-4.876,-4.8792,-4.8787,-4.8714,-4.8703,-4.8731,-4.8754,-4.8771,-4.8763,-4.8352,-4.8694,-4.8691,-4.8689,-4.8687,-4.8686,-4.8671,-4.8735,-4.8735,-4.8787,-4.8794,-4.8813,-4.8869,-4.8845,-4.8892,-4.8932,-4.8888,-4.8959,-4.8961,-4.8997,-4.9001,-4.9056,-4.8999,-4.904,-4.905,-4.9061,-4.9078,-4.8763,-4.9061,-4.906,-4.9059,-4.9058,-4.9058,0,-4.8983,-4.8978,-4.9026,-4.9055,-4.9096,-4.9024,-4.904,-4.908,-4.9143,-4.9152,-4.9189,-4.9256,-4.9305,-4.9279,-4.9321,-4.937,-4.9338,-4.9384,-4.9379,-4.938,-4.9126,-4.9098,-4.9409,-4.9409,-4.9409,-4.9409,-4.9409,-4.9409,-4.9149,-4.9255,-4.9228,-4.9336,-4.9329,-4.9398,-4.9414,-4.9431,-4.9438,-4.9517,-4.9558,-4.954,-4.9536,-4.9577,-4.9619,-4.961,-4.963,-4.9689,-4.9668,-4.9432,-4.9397,-4.9364,-4.9337,-4.9694,-4.9694,-4.9916,-4.9919,-4.992]},{"header":{"parameterUnit":"m.s-1","parameterCategory":1,"la1":30.2991,"la2":30.254,"lo1":-89.0895,"lo2":-89.0444,"dy":0.0017,"dx":0.0017,"nx":28,"ny":28,"refTime":"2024-12-25T09:00:00:Z","depth":0,"parameterNumber":3,"parameterNumberName":"V-component_of_WINDS"},"data":[0,0,0,0,0,0,0,0,0,0,0,0,0,0,0,0,0,0,0,0,0,0,0,0,0,0,0,0,0,0,0,0,0,0,0,0,0,0,0,0,0,0,0,0,0,0,0,0,0,0,0,0,0,0,0,0,0,0,-0.8352,-0.8353,0,-0.8396,-0.8396,-0.8397,-0.8424,-0.8424,-0.8424,-0.8424,-0.8471,-0.8472,-0.8473,0,0,0,0,0,0,0,0,0,0,0,0,0,-0.8292,-0.8293,-0.8352,-0.8353,-0.8353,-0.8396,-0.8396,-0.8397,-0.8424,-0.8424,-0.8424,-0.8424,-0.847,-0.8472,-0.8473,0,0,0,0,0,0,0,0,0,0,0,0,0,-0.8325,-0.8293,-0.8352,-0.8372,-0.8374,-0.8396,-0.8396,-0.8397,-0.8424,-0.8424,-0.8424,-0.8424,-0.847,-0.8472,-0.8473,-0.8479,0,0,-0.8478,-0.8479,0,0,0,0,0,0,0,0,-0.8323,-0.8327,-0.8368,-0.837,-0.8373,-0.8405,-0.8392,-0.8425,-0.8424,-0.8405,-0.8424,-0.8425,-0.8449,-0.8452,-0.846,-0.8482,-0.8484,-0.8478,-0.8479,-0.848,-0.8481,0,0,0,0,0,0,0,-0.8321,-0.8325,-0.8369,-0.8369,-0.8372,-0.8378,-0.8383,-0.8398,-0.8425,-0.8407,-0.8409,-0.8413,-0.845,-0.8458,-0.8461,-0.8484,-0.8478,-0.848,-0.8481,-0.8482,-0.8511,-0.851,0,0,0,0,0,0,-0.8315,-0.8323,-0.8368,-0.8371,-0.8348,-0.8379,-0.8385,-0.8394,-0.8425,-0.843,-0.8413,-0.8414,-0.8455,-0.8459,-0.8463,-0.8471,-0.848,-0.8482,-0.8483,-0.8511,-0.8511,-0.851,0,0,0,0,0,0,-0.8314,-0.8319,-0.8366,-0.8348,-0.8354,-0.838,-0.839,-0.8395,-0.8403,-0.843,-0.8435,-0.8417,-0.8456,-0.8461,-0.8474,-0.8473,-0.8482,-0.8484,-0.8511,-0.8511,-0.851,-0.8487,0,0,0,0,0,0,-0.8312,-0.8318,-0.8321,-0.8347,-0.8355,-0.8377,-0.839,-0.8396,-0.8406,-0.8408,-0.8435,-0.8439,-0.8456,-0.8472,-0.8476,-0.8475,-0.8485,-0.8511,-0.8511,-0.851,-0.8488,-0.8486,-0.8484,0,0,0,0,0,-0.831,-0.8314,-0.8321,-0.8326,-0.8359,-0.8377,-0.8381,-0.84,-0.8406,-0.8408,-0.8425,-0.8438,-0.8472,-0.8473,-0.8478,-0.8478,-0.8512,-0.8511,-0.8511,-0.8489,-0.8487,-0.8484,0,0,0,0,0,0,-0.8288,-0.8318,-0.8326,-0.8339,-0.8355,-0.8381,-0.8386,-0.8397,-0.8413,-0.8414,-0.8437,-0.8443,-0.8454,-0.8468,-0.8468,-0.8484,-0.8493,-0.8494,-0.8475,-0.8473,-0.8471,-0.8468,-0.8487,0,0,0,0,0,-0.8284,-0.8296,-0.8322,-0.833,-0.8338,-0.836,-0.8369,-0.8382,-0.84,-0.8407,-0.8425,-0.8442,-0.8456,-0.8465,-0.848,-0.849,-0.8495,-0.8492,-0.849,-0.8488,-0.8489,-0.8493,-0.8491,-0.8509,-0.8509,-0.8509,0,0,-0.8278,-0.8295,-0.8302,-0.8326,-0.834,-0.8352,-0.8366,-0.8378,-0.8387,-0.8409,-0.8423,-0.8436,-0.8457,-0.8468,-0.8474,-0.8479,-0.8485,-0.8488,-0.8486,-0.8487,-0.8492,-0.849,-0.8489,-0.8508,-0.8508,-0.8508,0,0,-0.8271,-0.8286,-0.8294,-0.8307,-0.8327,-0.8342,-0.8344,-0.8368,-0.8377,-0.8391,-0.8407,-0.8418,-0.8442,-0.8456,-0.8466,-0.8461,-0.8473,-0.8465,-0.8455,-0.8459,-0.8457,-0.8456,-0.8454,-0.8452,-0.8465,-0.8465,-0.8465,0,-0.8261,-0.8278,-0.8297,-0.8307,-0.8317,-0.8336,-0.8344,-0.8356,-0.838,-0.8386,-0.8392,-0.8421,-0.8437,-0.845,-0.8449,-0.8457,-0.8459,-0.8462,-0.8456,-0.8455,-0.8454,-0.8452,-0.8451,-0.8464,-0.8464,-0.8464,-0.8464,0,-0.8263,-0.8275,-0.8279,-0.8301,-0.8311,-0.832,-0.8339,-0.8347,-0.8359,-0.8372,-0.8385,-0.8403,-0.8421,-0.8425,-0.8437,-0.844,-0.8443,-0.8452,-0.8461,-0.8451,-0.8449,-0.8449,-0.8462,-0.8462,-0.8463,-0.8463,0,0,-0.8247,-0.8276,-0.8277,-0.8286,-0.8309,-0.8318,-0.8327,-0.8344,-0.835,-0.8365,-0.8373,-0.8392,-0.8399,-0.8411,-0.8424,-0.8427,-0.842,-0.8436,-0.8436,-0.8431,-0.8423,-0.8416,-0.8415,-0.8428,-0.8428,-0.8428,-0.8421,0,-0.8243,-0.826,-0.8276,-0.8287,-0.8298,-0.8314,-0.8322,-0.8336,-0.8348,-0.8359,-0.8373,-0.8385,-0.8395,-0.8401,-0.8405,-0.842,-0.8419,-0.8421,-0.8435,-0.8436,-0.843,-0.8414,-0.8407,-0.84,-0.8421,-0.842,-0.842,0,-0.8242,-0.8255,-0.8267,-0.8286,-0.8291,-0.8298,-0.8313,-0.8323,-0.8339,-0.8347,-0.8358,-0.8371,-0.8381,-0.8388,-0.8401,-0.8402,-0.8409,-0.8417,-0.8417,-0.8419,-0.8428,-0.8415,-0.8398,-0.8397,-0.842,-0.842,-0.842,0,-0.8228,-0.8248,-0.8258,-0.8265,-0.8288,-0.8292,-0.8302,-0.8318,-0.8325,-0.8338,-0.8344,-0.8358,-0.8366,-0.8376,-0.8392,-0.8397,-0.8403,-0.8413,-0.841,-0.8409,-0.8411,-0.8411,-0.8394,-0.8415,-0.8415,-0.8415,-0.8415,0,-0.8223,-0.8229,-0.8251,-0.8257,-0.8264,-0.8281,-0.8287,-0.8299,-0.8312,-0.832,-0.8335,-0.8342,-0.8363,-0.8372,-0.8385,-0.8393,-0.8397,-0.8403,-0.8407,-0.8402,-0.8401,-0.8407,-0.8408,-0.8415,-0.8415,-0.8415,-0.8415,0,-0.8208,-0.8223,-0.8234,-0.8254,-0.8259,-0.8263,-0.828,-0.8286,-0.8298,-0.8307,-0.831,-0.8329,-0.834,-0.8357,-0.8374,-0.8382,-0.8388,-0.8394,-0.8382,-0.8384,-0.838,-0.838,-0.8367,-0.8366,-0.8388,-0.8387,-0.8387,0,-0.8204,-0.8209,-0.8228,-0.8234,-0.8243,-0.8252,-0.826,-0.8276,-0.8283,-0.83,-0.8303,-0.8315,-0.8326,-0.8343,-0.8358,-0.8371,-0.8376,-0.8371,-0.8379,-0.8373,-0.8375,-0.8375,-0.8375,-0.8369,-0.8369,-0.8369,-0.8368,0,-0.8195,-0.8201,-0.8211,-0.8223,-0.8231,-0.8241,-0.8253,-0.8256,-0.8275,-0.8282,-0.8293,-0.8301,-0.8316,-0.8328,-0.8342,-0.8352,-0.8363,-0.8365,-0.8365,-0.8361,-0.8354,-0.8357,-0.8377,-0.8366,-0.8366,-0.8366,-0.8367,-0.8367,-0.8185,-0.8189,-0.8203,-0.8213,-0.8222,-0.8232,-0.8237,-0.8249,-0.8258,-0.8271,-0.828,-0.829,-0.8304,-0.8323,-0.8332,-0.834,-0.8345,-0.8345,-0.8345,-0.8345,-0.8342,-0.8352,-0.8343,-0.8343,-0.8343,-0.8343,-0.8343,0,-0.8176,-0.8185,-0.8194,-0.8207,-0.8215,-0.8223,-0.8235,-0.8241,-0.8249,-0.826,-0.8269,-0.8281,-0.8291,-0.8306,-0.8317,-0.832,-0.8326,-0.8323,-0.8323,-0.8325,-0.8338,-0.8336,-0.8318,-0.8318,-0.8318,-0.8318,-0.8318,-0.8318,-0.8172,-0.8179,-0.8187,-0.8198,-0.8207,-0.8216,-0.8222,-0.823,-0.8239,-0.825,-0.8258,-0.8268,-0.828,-0.8292,-0.8301,-0.8305,-0.8308,-0.8304,-0.8309,-0.8322,-0.8324,-0.8326,-0.8325,-0.8304,-0.8304,-0.8295,-0.8295,-0.8295]}]]